Hourly Data Report for October 15, 2019

All times are specified in Local Standard Time (LST). Add 1 hour to adjust for Daylight Saving Time where and when it is observed.

SEPT-ILES
QUEBEC
Current Station Operator: ECCC - MSC

50°13'00.000" N
66°15'00.000" W
52.60 m
7047914
71279
XZV

Download Data

Hourly Data (October 2019)
Hourly Data Report for October 15, 2019
TIME Temp Definition
°C
Dew Point Definition
°C
Rel Hum Definition
%
Wind Dir Definition
10's deg

Wind Spd Definition
km/h
Visibility Definition
km
Stn Press Definition
kPa
Hmdx Definition


Wind Chill Definition


Weather Definition


00:00 7.9 7.3 96 9 17   100.56     LegendNANA
01:00 8.1 7.8 98 7 17   100.49     LegendNANA
02:00 8.4 8.0 97 8 13   100.38     LegendNANA
03:00 8.6 8.0 97 10 10   100.41     LegendNANA
04:00 8.2 7.8 97 11 4   100.39     LegendNANA
05:00 7.6 6.7 94 24 9   100.45     LegendNANA
06:00 7.5 6.7 95 24 8   100.44     LegendNANA
07:00 7.4 6.3 93 25 9   100.49     LegendNANA
08:00 7.7 5.4 86 27 10   100.51     LegendNANA
09:00 8.6 4.8 77 28 12   100.52     LegendNANA
10:00 8.6 3.2 69 28 15   100.55     LegendNANA
11:00 9.8 2.6 61 28 14   100.56     LegendNANA
12:00 9.8 0.8 53 28 13   100.57     LegendNANA
13:00 10.6 -0.5 46 28 13   100.53     LegendNANA
14:00 8.8 4.4 74 24 9   100.55     LegendNANA
15:00 8.5 4.6 76 23 9   100.53     LegendNANA
16:00 7.5 4.8 83 17 4   100.53     LegendNANA
17:00 6.8 4.5 85 23 4   100.56     LegendNANA
18:00 6.9 3.8 81 26 7   100.58     LegendNANA
19:00 6.6 4.1 84 26 7   100.57     LegendNANA
20:00 6.6 3.7 81 24 4   100.58     LegendNANA
21:00 5.0 3.1 87 26 5   100.57     LegendNANA
22:00 4.1 0.9 80 31 5   100.54     LegendNANA
23:00 5.1 1.5 77 25 7   100.53     LegendNANA

Notes on Data Quality.

Legend

  • E = Estimated
  • M = Missing
  • NA = Not Available
Date modified: